TimeEDT,TemperatureF,Dew PointF,Humidity,Sea Level PressureIn,VisibilityMPH,Wind Direction,Wind SpeedMPH,Gust SpeedMPH,PrecipitationIn,Events,Conditions,WindDirDegrees,DateUTC
12:14 AM,66.2,62.6,88,29.89,10.0,SSW,11.5,-,N/A,,Scattered Clouds,200,2013-06-24 04:14:00
12:35 AM,66.2,62.6,88,29.89,10.0,SSW,9.2,-,N/A,,Scattered Clouds,200,2013-06-24 04:35:00
12:55 AM,64.4,62.6,94,29.90,10.0,South,6.9,-,N/A,,Clear,190,2013-06-24 04:55:00
1:14 AM,64.4,62.6,94,29.90,10.0,South,9.2,-,N/A,,Clear,190,2013-06-24 05:14:00
1:35 AM,62.6,62.6,100,29.90,7.0,South,6.9,-,N/A,,Clear,190,2013-06-24 05:35:00
1:54 AM,62.6,60.8,94,29.90,7.0,South,6.9,-,N/A,,Clear,190,2013-06-24 05:54:00
2:14 AM,62.6,60.8,94,29.90,7.0,South,6.9,-,N/A,,Clear,190,2013-06-24 06:14:00
2:35 AM,62.6,60.8,94,29.91,7.0,South,6.9,-,N/A,,Clear,190,2013-06-24 06:35:00
2:54 AM,62.6,60.8,94,29.91,7.0,SSW,8.1,-,N/A,,Clear,200,2013-06-24 06:54:00
3:14 AM,60.8,60.8,100,29.91,7.0,SSW,5.8,-,N/A,,Clear,210,2013-06-24 07:14:00
3:35 AM,60.8,59.0,94,29.91,5.0,SW,4.6,-,N/A,,Clear,220,2013-06-24 07:35:00
3:54 AM,60.8,60.8,100,29.90,7.0,SSW,5.8,-,N/A,,Clear,210,2013-06-24 07:54:00
4:15 AM,60.8,60.8,100,29.90,7.0,SSW,8.1,-,N/A,,Clear,210,2013-06-24 08:15:00
4:35 AM,62.6,60.8,94,29.91,10.0,SW,8.1,-,N/A,,Clear,220,2013-06-24 08:35:00
4:54 AM,60.8,60.8,100,29.91,7.0,SSW,6.9,-,N/A,,Clear,200,2013-06-24 08:54:00
5:15 AM,59.0,57.2,94,29.92,4.0,SSW,6.9,-,N/A,,Clear,200,2013-06-24 09:15:00
5:34 AM,59.0,57.2,94,29.92,4.0,SSW,6.9,-,N/A,,Clear,210,2013-06-24 09:34:00
5:55 AM,57.2,57.2,100,29.92,3.0,SSW,6.9,-,N/A,,Clear,200,2013-06-24 09:55:00
6:15 AM,57.2,55.4,94,29.92,2.5,SSW,5.8,-,N/A,,Clear,210,2013-06-24 10:15:00
6:34 AM,57.2,55.4,94,29.93,2.5,SSW,8.1,-,N/A,,Scattered Clouds,200,2013-06-24 10:34:00
6:55 AM,57.2,57.2,100,29.92,2.0,SW,8.1,-,N/A,,Mostly Cloudy,230,2013-06-24 10:55:00
7:15 AM,60.8,59.0,94,29.93,4.0,SW,6.9,-,N/A,,Clear,230,2013-06-24 11:15:00
7:34 AM,62.6,60.8,94,29.93,7.0,SW,10.4,-,N/A,,Clear,220,2013-06-24 11:34:00
7:55 AM,64.4,62.6,94,29.93,10.0,SW,9.2,-,N/A,,Clear,220,2013-06-24 11:55:00
8:14 AM,64.4,62.6,94,29.93,10.0,WSW,9.2,-,N/A,,Clear,240,2013-06-24 12:14:00
8:34 AM,66.2,62.6,88,29.93,10.0,WSW,4.6,-,N/A,,Clear,240,2013-06-24 12:34:00
8:55 AM,68.0,64.4,88,29.93,10.0,SSW,4.6,-,N/A,,Clear,210,2013-06-24 12:55:00
9:14 AM,69.8,64.4,83,29.93,10.0,SW,5.8,-,N/A,,Clear,220,2013-06-24 13:14:00
9:35 AM,69.8,66.2,88,29.94,10.0,SSW,6.9,-,N/A,,Clear,210,2013-06-24 13:35:00
9:54 AM,71.6,66.2,83,29.95,10.0,SW,5.8,-,N/A,,Clear,230,2013-06-24 13:54:00
10:15 AM,71.6,66.2,83,29.95,10.0,SSW,5.8,-,N/A,,Mostly Cloudy,210,2013-06-24 14:15:00
10:34 AM,73.4,66.2,78,29.95,10.0,South,6.9,-,N/A,,Scattered Clouds,190,2013-06-24 14:34:00
10:54 AM,75.2,69.8,83,29.96,10.0,WSW,6.9,-,N/A,,Clear,250,2013-06-24 14:54:00
11:15 AM,77.0,69.8,78,29.95,10.0,WSW,3.5,-,N/A,,Scattered Clouds,240,2013-06-24 15:15:00
11:34 AM,77.0,69.8,78,29.95,10.0,West,5.8,-,N/A,,Clear,260,2013-06-24 15:34:00
11:54 AM,78.8,68.0,69,29.95,10.0,WSW,3.5,-,N/A,,Scattered Clouds,250,2013-06-24 15:54:00
12:15 PM,78.8,68.0,69,29.94,10.0,West,3.5,-,N/A,,Scattered Clouds,270,2013-06-24 16:15:00
12:34 PM,80.6,68.0,65,29.94,10.0,SSW,4.6,-,N/A,,Scattered Clouds,210,2013-06-24 16:34:00
12:54 PM,80.6,69.8,70,29.94,10.0,SW,8.1,-,N/A,,Scattered Clouds,230,2013-06-24 16:54:00
1:15 PM,80.6,69.8,70,29.94,10.0,SW,4.6,-,N/A,,Scattered Clouds,230,2013-06-24 17:15:00
1:34 PM,80.6,69.8,70,29.93,10.0,SSW,11.5,16.1,N/A,,Mostly Cloudy,210,2013-06-24 17:34:00
1:55 PM,78.8,69.8,74,29.94,10.0,South,10.4,-,N/A,,Scattered Clouds,190,2013-06-24 17:55:00
2:15 PM,80.6,69.8,70,29.93,10.0,SSE,10.4,-,N/A,,Scattered Clouds,160,2013-06-24 18:15:00
2:34 PM,78.8,69.8,74,29.92,10.0,SSE,10.4,-,N/A,,Clear,160,2013-06-24 18:34:00
2:55 PM,80.6,69.8,70,29.92,10.0,South,11.5,16.1,N/A,,Clear,180,2013-06-24 18:55:00
3:14 PM,80.6,69.8,70,29.91,10.0,South,13.8,17.3,N/A,,Clear,190,2013-06-24 19:14:00
3:34 PM,78.8,69.8,74,29.90,10.0,South,15.0,-,N/A,,Scattered Clouds,180,2013-06-24 19:34:00
3:55 PM,78.8,69.8,74,29.91,10.0,South,15.0,19.6,N/A,,Clear,190,2013-06-24 19:55:00
4:14 PM,78.8,69.8,74,29.90,10.0,SSW,15.0,-,N/A,,Scattered Clouds,200,2013-06-24 20:14:00
4:34 PM,78.8,69.8,74,29.89,10.0,SSW,16.1,-,N/A,,Scattered Clouds,200,2013-06-24 20:34:00
4:55 PM,78.8,69.8,74,29.88,10.0,South,11.5,-,N/A,,Scattered Clouds,180,2013-06-24 20:55:00
5:14 PM,78.8,69.8,74,29.87,10.0,SSW,13.8,-,N/A,,Scattered Clouds,210,2013-06-24 21:14:00
5:35 PM,78.8,69.8,74,29.86,10.0,South,12.7,-,N/A,,Clear,190,2013-06-24 21:35:00
5:55 PM,77.0,69.8,78,29.85,10.0,SSW,12.7,-,N/A,,Clear,200,2013-06-24 21:55:00
6:14 PM,78.8,69.8,74,29.86,10.0,South,10.4,-,N/A,,Clear,190,2013-06-24 22:14:00
6:35 PM,77.0,69.8,78,29.87,10.0,South,12.7,18.4,N/A,,Clear,190,2013-06-24 22:35:00
6:55 PM,77.0,69.8,78,29.87,10.0,SSW,9.2,-,N/A,,Clear,210,2013-06-24 22:55:00
7:14 PM,75.2,69.8,83,29.87,10.0,SSW,10.4,-,N/A,,Clear,200,2013-06-24 23:14:00
7:35 PM,75.2,68.0,78,29.87,10.0,South,10.4,-,N/A,,Clear,180,2013-06-24 23:35:00
7:54 PM,75.2,68.0,78,29.87,10.0,SSW,10.4,-,N/A,,Clear,210,2013-06-24 23:54:00
8:14 PM,75.2,69.8,83,29.87,10.0,South,9.2,-,N/A,,Clear,190,2013-06-25 00:14:00
8:35 PM,73.4,68.0,83,29.87,10.0,SSW,10.4,-,N/A,,Clear,200,2013-06-25 00:35:00
8:54 PM,71.6,68.0,88,29.86,10.0,SSW,10.4,-,N/A,,Clear,200,2013-06-25 00:54:00
9:14 PM,71.6,66.2,83,29.86,10.0,South,10.4,-,N/A,,Clear,190,2013-06-25 01:14:00
9:35 PM,69.8,66.2,88,29.86,7.0,South,10.4,-,N/A,,Clear,190,2013-06-25 01:35:00
9:54 PM,66.2,64.4,94,29.86,7.0,SSW,11.5,18.4,N/A,,Clear,200,2013-06-25 01:54:00
10:15 PM,64.4,62.6,94,29.86,10.0,SSW,11.5,-,N/A,,Clear,210,2013-06-25 02:15:00
10:35 PM,64.4,62.6,94,29.86,10.0,SSW,10.4,-,N/A,,Clear,210,2013-06-25 02:35:00
10:54 PM,64.4,62.6,94,29.85,10.0,South,10.4,-,N/A,,Clear,190,2013-06-25 02:54:00
11:15 PM,64.4,60.8,88,29.85,10.0,SSW,9.2,-,N/A,,Clear,210,2013-06-25 03:15:00
11:35 PM,64.4,60.8,88,29.86,10.0,SSW,8.1,-,N/A,,Clear,210,2013-06-25 03:35:00
11:54 PM,64.4,60.8,88,29.86,10.0,South,11.5,-,N/A,,Clear,190,2013-06-25 03:54:00